Location: Arroyo de Valdeoliva
(40.1604°N, 4.9878°W)
Time: 12:10:05
(UTC+00:00)

Tiangong - Pass Details

Date: 16 February 2026
Orbit: 381 x 391 km, 41.5° (Epoch: 8 March)

Event Time Altitude Azimuth Distance (km) Brightness Sun altitude
Rises 19:04:39 0° 276° (W) 2,254 3.6 -13.6°
Reaches altitude 10° 19:06:44 10° 279° (W) 1,399 2.0 -14.0°
Maximum altitude 19:09:52 67° 2° (N) 416 -2.1 -14.6°
Enters shadow 19:11:01 35° 75° (ENE) 641 -1.6 -14.8°
